Regional Weather Roundup
Issued by NWS

Home | Current Version | Previous Version | Text Only | Print | Product List | Glossary On
Versions: 1 2 3 4 5 6 7 8 9 10 11 12 13 14 15 16 17 18 19 20 21 22 23 24 25 26 27 28 29 30 31 32 33 34 35 36 37 38 39 40 41 42 43 44 45 46 47 48 49 50
000
ASUS44 KBMX 060710
RWRAL

ALABAMA REGIONAL WEATHER ROUNDUP
NATIONAL WEATHER SERVICE BIRMINGHAM AL
100 AM CST TUE DEC 06 2016

NOTE: "FAIR" INDICATES FEW OR NO CLOUDS BELOW 12,000 FEET
WITH NO SIGNIFICANT WEATHER AND/OR OBSTRUCTIONS TO VISIBILITY.

THE REMARK "TC" DENOTES TEMPERATURE IN DEGREES CELSIUS.

ALZ001>011-014-016>018-020-060800-
NORTH ALABAMA

CITY           SKY/WX    TMP DP  RH WIND       PRES   REMARKS
MUSCLE SHOALS  RAIN      54  52  93 SE5       29.72R FOG
HUNTSVILLE     HVY RAIN  56  55  97 E9        29.72F FOG
DECATUR        HVY RAIN  54  54 100 E5        29.73R FOG
HALEYVILLE     LGT RAIN  54  53  97 SE7       29.69F
GADSDEN        CLOUDY    55  54  96 NE6       29.75F
$$

ALZ012-013-022-023-030>036-040>044-060800-
WEST CENTRAL ALABAMA

CITY           SKY/WX    TMP DP  RH WIND       PRES   REMARKS
TUSCALOOSA     LGT RAIN  58  57  97 E6        29.65F
$$

ALZ015-024>027-033>036-040>044-060800-
CENTRAL ALABAMA

CITY           SKY/WX    TMP DP  RH WIND       PRES   REMARKS
BIRMINGHAM     LGT RAIN  57  57 100 E9        29.72F
MONTGOMERY     LGT RAIN  57  53  86 E10       29.73F FOG
SHELBY CO ARPT LGT RAIN  58  58 100 SE6       29.71F FOG
MAXWELL AFB    LGT RAIN  56  56  98 E6        29.71F
GREENVILLE     LGT RAIN  59  55  87 SE8       29.70F VSB 1
$$

ALZ019-021-028-029-037-038-045>048-060800-
EAST CENTRAL ALABAMA

CITY           SKY/WX    TMP DP  RH WIND       PRES   REMARKS
ANNISTON       CLOUDY    58  55  90 E6        29.75F
ALEXANDER CITY RAIN      60  58  95 E7        29.75R
AUBURN         LGT RAIN  54  54 100 E9        29.77F
$$

ALZ051>064-060800-
SOUTHWEST ALABAMA

CITY           SKY/WX    TMP DP  RH WIND       PRES   REMARKS
MOBILE         CLOUDY    62  60  93 CALM      29.67F
BROOKLEY FIELD CLOUDY    63  63 100 CALM      29.68F
EVERGREEN      RAIN      58  57  97 SE5       29.71F FOG
$$

ALZ049-050-065>069-060800-
SOUTHEAST ALABAMA

CITY           SKY/WX    TMP DP  RH WIND       PRES   REMARKS
DOTHAN         RAIN      63  63 100 E7        29.74F FOG
OZARK          CLOUDY    63  63 100 E3        29.71F
TROY           CLOUDY    56  56 100 E6        29.72F FOG
EUFAULA        CLOUDY    59  57  93 NW3       29.73R
$$



USA.gov is the U.S. government's official web portal to all federal, state and local government web resources and services.